OH2FDL-2 Weather Reports


Display with metric or nautical units.
time (UTC)temp
F
wind
direction
speed
MPH
gust
MPH
rain 1hr
in
rain 24hr
in
rain mn
in
humidity
%
barometer
mb
20260506183018 43 0.0 0.0 0.00 0.00 0.00 69 1009.8
20260506181518 44 0.0 0.0 0.00 0.00 0.00 66 1009.8
20260506180023 45 0.0 0.0 0.00 0.00 0.00 63 1009.8
20260506174517 47 0.0 0.0 0.00 0.00 0.00 61 1009.8
20260506173018 47 0.0 0.0 0.00 0.00 0.00 60 1009.8
20260506171518 48 0.0 0.0 0.00 0.00 0.00 58 1009.7
20260506170018 49 0.0 0.0 0.00 0.00 0.00 57 1009.5
20260506164518 50 0.0 0.0 0.00 0.00 0.00 56 1009.5
20260506163018 51 0.0 0.0 0.00 0.00 0.00 54 1009.5
20260506161517 51 0.0 0.0 0.00 0.00 0.00 53 1009.4
20260506160018 52 0.0 0.0 0.00 0.00 0.00 52 1009.4
20260506154517 52 0.0 0.0 0.00 0.00 0.00 52 1009.4
20260506153018 52 0.0 0.0 0.00 0.00 0.00 51 1009.5
20260506151517 54 0.0 0.0 0.00 0.00 0.00 50 1009.5
20260506144522 54 0.0 0.0 0.00 0.00 0.00 50 1009.6
20260506143018 55 0.0 0.0 0.00 0.00 0.00 49 1009.5
20260506134517 53 0.0 0.0 0.00 0.00 0.00 50 1009.5
20260506133018 55 0.0 0.0 0.00 0.00 0.00 48 1009.5
20260506131518 56 0.0 0.0 0.00 0.00 0.00 48 1009.4
20260506130018 55 0.0 0.0 0.00 0.00 0.00 46 1009.4
20260506124517 55 0.0 0.0 0.00 0.00 0.00 44 1009.4
20260506123018 55 0.0 0.0 0.00 0.00 0.00 44 1009.4
20260506121518 54 0.0 0.0 0.00 0.00 0.00 44 1009.5
20260506120018 53 0.0 0.0 0.00 0.00 0.00 45 1009.4
20260506114517 53 0.0 0.0 0.00 0.00 0.00 45 1009.5
20260506113017 54 0.0 0.0 0.00 0.00 0.00 45 1009.4
20260506111517 54 0.0 0.0 0.00 0.00 0.00 46 1009.4
20260506110018 54 0.0 0.0 0.00 0.00 0.00 48 1009.4
20260506104518 53 0.0 0.0 0.00 0.00 0.00 50 1009.3
20260506103018 52 0.0 0.0 0.00 0.00 0.00 52 1009.3
20260506101518 51 0.0 0.0 0.00 0.00 0.00 52 1009.4
20260506100017 51 0.0 0.0 0.00 0.00 0.00 53 1009.3
20260506094517 55 0.0 0.0 0.00 0.00 0.00 55 1009.2
20260506093018 54 0.0 0.0 0.00 0.00 0.00 58 1009.2
20260506091517 58 0.0 0.0 0.00 0.00 0.00 64 1009.0
20260506090018 54 0.0 0.0 0.00 0.00 0.00 67 1009.0
20260506084518 52 0.0 0.0 0.00 0.00 0.00 73 1009.0
20260506081518 49 0.0 0.0 0.00 0.00 0.00 80 1008.8
20260506073018 46 0.0 0.0 0.00 0.00 0.00 92 1008.7
20260506071517 45 0.0 0.0 0.00 0.00 0.00 96 1008.6
20260506061523 43 0.0 0.0 0.00 0.00 0.00 10 1008.3
20260506044518 37 0.0 0.0 0.00 0.00 0.00 10 1007.4
20260506043018 36 0.0 0.0 0.00 0.00 0.00 10 1007.3
20260506041518 34 0.0 0.0 0.00 0.00 0.00 10 1007.1
20260506040018 32 0.0 0.0 0.00 0.00 0.00 10 1007.0
20260506034518 30 0.0 0.0 0.00 0.00 0.00 10 1006.9
20260506033018 29 0.0 0.0 0.00 0.00 0.00 10 1006.7
20260506031518 28 0.0 0.0 0.00 0.00 0.00 10 1006.5
20260506024518 27 0.0 0.0 0.00 0.00 0.00 10 1006.2
20260506023017 26 0.0 0.0 0.00 0.00 0.00 10 1006.1
20260506021518 26 0.0 0.0 0.00 0.00 0.00 10 1005.9
20260506014518 26 0.0 0.0 0.00 0.00 0.00 10 1005.7
20260506013018 27 0.0 0.0 0.00 0.00 0.00 10 1005.7
20260506010018 27 0.0 0.0 0.00 0.00 0.00 10 1005.5
20260506004518 27 0.0 0.0 0.00 0.00 0.00 10 1005.3
20260506003017 28 0.0 0.0 0.00 0.00 0.00 10 1005.2
20260506001517 28 0.0 0.0 0.00 0.00 0.00 10 1005.1
20260506000018 28 0.0 0.0 0.00 0.00 0.00 10 1005.1
20260505234518 29 0.0 0.0 0.00 0.00 0.00 10 1004.9
20260505233018 29 0.0 0.0 0.00 0.00 0.00 10 1004.8
20260505231518 29 0.0 0.0 0.00 0.00 0.00 10 1004.7
20260505230018 29 0.0 0.0 0.00 0.00 0.00 10 1004.7
20260505224518 30 0.0 0.0 0.00 0.00 0.00 10 1004.5
20260505223018 30 0.0 0.0 0.00 0.00 0.00 10 1004.4
20260505221518 30 0.0 0.0 0.00 0.00 0.00 98 1004.4
20260505214518 31 0.0 0.0 0.00 0.00 0.00 93 1004.3
20260505213018 32 0.0 0.0 0.00 0.00 0.00 91 1004.2
20260505211518 32 0.0 0.0 0.00 0.00 0.00 88 1004.0
20260505210018 33 0.0 0.0 0.00 0.00 0.00 86 1003.8
20260505204517 34 0.0 0.0 0.00 0.00 0.00 84 1003.6
20260505203017 35 0.0 0.0 0.00 0.00 0.00 81 1003.4
20260505201517 36 0.0 0.0 0.00 0.00 0.00 78 1003.3
20260505200018 37 0.0 0.0 0.00 0.00 0.00 76 1003.2
20260505193018 39 0.0 0.0 0.00 0.00 0.00 71 1003.1
20260505191518 40 0.0 0.0 0.00 0.00 0.00 69 1003.0
20260505190018 40 0.0 0.0 0.00 0.00 0.00 66 1002.7